User: anonymous   Login
Location: Oshawa
(43.9000°N, 78.8670°W)
Time: 23:33:55
(UTC-04:00)
Language:

Cosmos 1953 Rocket - Orbit

View from above orbital plane
View from above orbital plane
View from above satellite
View from above satellite

Ground track
Ground track

The orbit data is extracted from the following two-line orbital elements,

1 19211U 88050B   15241.11305852  .00000220  00000-0  24143-4 0  9995
2 19211 082.5246 097.8285 0023228 123.4538 350.6377 14.82786992469269
Epoch (UTC): 29 August 2015 02:42:48
Eccentricity: 0.0023228
inclination: 82.5246°
perigee height: 604 km
apogee height: 637 km
right ascension of ascending node: 97.8285°
argument of perigee: 123.4538°
revolutions per day: 14.82786992
mean anomaly at epoch: 350.6377°
orbit number at epoch: 46926

The dashed part of the orbit path shows where the satellite is in the earth's shadow,  

DLR